Flag for Germany Weather past 2 weeks in Lutherstadt Eisleben, Saxony-Anhalt, Germany

Now
55 °F

Passing clouds.


Feels Like: 55 °F
Forecast: 43 / 64 °F
Wind: 1 mph from South

Location: Leipzig-Schkeuditz

Current Time: May 22, 2015 at 11:23:36 PM

Latest Report: May 22, 2015 at 11:00 PM


Visibility: 31 mi

Pressure: 30.20 "Hg

Humidity: 55%

Dew point: 39 °F

Location of Lutherstadt EislebenLocation

Historic Weather in Lutherstadt Eisleben — Graph

°F

Lutherstadt Eisleben temperature yesterday

Maximum temperature yesterday: 61 °F (at 2:00 PM)
Minimum temperature yesterday: 44 °F (at 6:00 AM)
Average temperature yesterday: 53 °F

Past Weeks' High & Low Weather Summary

 TemperatureHumidityPressure
High82 °F (May 12, 4:00 PM)95% (May 15, 6:00 AM)30.39 "Hg (May 15, 6:00 AM)
Low39 °F (May 15, 6:00 AM)22% (May 12, 4:00 PM)29.64 "Hg (May 19, 4:00 AM)
Average56 °F60%30.06 "Hg
* Reported May 7 10:00 PM — May 22 10:00 PM, Lutherstadt Eisleben, Weather by CustomWeather, © 2015

Note: Actual official high and low records may vary slightly from our data, if they occured in-between our weather recording intervals... More about our weather records

Advertising

Lutherstadt Eisleben weather history for previous 24 hours

 ConditionsComfort  
Time TempWeatherWind HumidityBarometerVisibility
10:00 PM
Fri, May 22
58 °FPassing clouds.1 mph50%30.20 "Hg31 mi
9:00 PM62 °FPartly sunny.1 mph40%30.19 "Hg37 mi
8:00 PM64 °FPartly sunny.1 mph33%30.19 "Hg37 mi
7:00 PM65 °FPartly sunny.1 mph32%30.19 "Hg43 mi
6:00 PM66 °FPartly sunny.1 mph32%30.20 "Hg43 mi
5:00 PM65 °FPartly sunny.1 mph32%30.22 "Hg43 mi
4:00 PM65 °FPartly sunny.2 mph34%30.24 "Hg40 mi
3:00 PM66 °FScattered clouds.2 mph31%30.25 "Hg37 mi
2:00 PM65 °FPartly sunny.2 mph30%30.27 "Hg37 mi
1:00 PM63 °FPartly sunny.2 mph35%30.29 "Hg37 mi
12:00 PM62 °FPartly sunny.1 mph36%30.31 "Hg37 mi
10:00 AM58 °FScattered clouds.3 mph50%30.33 "Hg28 mi
9:00 AM53 °FScattered clouds.3 mph63%30.34 "Hg28 mi
8:00 AM49 °FScattered clouds.2 mph72%30.34 "Hg28 mi
7:00 AM44 °FPartly sunny.2 mph86%30.34 "Hg28 mi
6:00 AM42 °FPartly sunny.2 mph88%30.34 "Hg28 mi
4:00 AM41 °FClear.3 mph88%30.34 "Hg34 mi
3:00 AM42 °FClear.2 mph85%30.34 "Hg34 mi
2:00 AM44 °FClear.2 mph78%30.34 "Hg34 mi
1:00 AM45 °FClear.1 mph76%30.33 "Hg34 mi
12:00 AM46 °FClear.2 mph73%30.33 "Hg34 mi
Weather by CustomWeather, © 2015

See weather overviewHow to use our weather pages